Orbital Elements at Epoch 2451606.5 (2000-Mar-03.0) TDB
Reference: JPL 12 (heliocentric ecliptic J2000)
Element | Value | Uncertainty (1-sigma) | Units |
e | .6886420878908622 | 2.118e-06 | |
a | 3.143688003695274 | 6.3781e-07 | au |
q | .9788121331531039 | 6.4599e-06 | au |
i | 31.97414822324667 | 0.00011058 | deg |
node | 205.260324700398 | 3.6625e-05 | deg |
peri | 179.5749493037745 | 2.8443e-05 | deg |
M | 173.3233983417518 | 0.00048166 | deg |
tp | 2450626.305461280888 (1997-Jun-26.80546128) | 0.0030219 | TDB |
period | 2035.905349854185 5.57 | 0.00061958 1.696e-06 | d yr |
n | .1768255091160225 | 5.3813e-08 | deg/d |
Q | 5.308563874237445 | 1.077e-06 | au |
|
| | Orbit Determination Parameters
Additional Information
|